Location: LDNL
(36.4545°S, 141.6685°E)
Time: 12:09:50
(UTC+10:00)

Vanguard 3 - Pass Details

Date: 30 January 2022
Orbit: 508 x 3258 km, 33.3° (Epoch: 25 May)

Event Time Altitude Azimuth Distance (km) Brightness Sun altitude
Rises 09:04:17 0° 268° (W) 6,758 11.3 25.9°
Reaches altitude 10° 09:12:07 10° 288° (WNW) 6,068 11.1 27.4°
Maximum altitude 09:20:30 14° 314° (NW) 5,808 11.2 29.1°
Drops below altitude 10° 09:28:59 10° 340° (NNW) 6,080 11.5 30.8°
Sets 09:37:06 0° 1° (N) 6,766 11.9 32.4°
